Wind_Speed
23 28 38 43 43 39 36 36 33 31 32 34 43 42 37 30 29 28 23 26 24 24 26 24 28 29 36 38 32 37 44 43 43 34 33 30 30 26 18 20 18 18 19 19
22 37 43 36 32 36 37 36 38 31 33 25 29 30 28 28 29 29 28 28 27 29 26 26 25 24 24 37 38 38 44 45 48 35 34 33 33 26 21 22 19 19 21 21
32 35 31 34 35 36 39 39 32 29 21 21 20 24 25 26 29 32 31 30 28 28 24 23 24 25 27 27 36 42 43 49 51 39 36 36 37 29 27 26 21 19 22 23
35 30 28 32 37 35 36 32 30 25 22 19 20 18 24 32 33 37 28 28 27 27 28 30 31 31 29 33 36 35 39 43 49 42 39 39 38 32 27 30 24 21 22 24
41 32 30 36 35 33 34 26 22 21 20 23 24 20 20 9 15 17 17 19 18 16 18 19 22 30 38 35 31 38 36 38 43 42 41 40 41 34 30 32 28 24 23 24
34 22 28 32 22 29 23 12 14 14 18 19 30 25 18 21 16 19 15 7 3 7 13 15 18 18 21 39 43 36 36 42 43 47 42 43 41 39 34 34 32 25 25 24
31 28 24 23 27 25 21 19 4 9 8 12 24 24 24 12 16 18 12 11 11 13 18 22 23 25 25 22 17 36 44 36 42 47 43 43 41 40 40 36 34 27 26 25
27 12 25 21 24 25 28 28 11 8 9 12 24 11 28 22 15 11 11 6 6 13 18 14 13 14 23 29 28 25 38 44 41 45 43 42 42 40 38 36 34 30 26 24
15 17 26 18 21 23 28 35 32 6 7 3 13 9 13 20 19 12 8 3 4 7 13 15 16 16 18 25 29 30 32 40 39 42 44 43 41 41 38 37 34 32 27 23
15 5 20 15 24 21 25 30 17 9 5 3 12 15 14 17 15 11 6 4 9 17 20 20 18 15 15 22 24 29 24 32 38 41 44 42 40 40 38 38 36 32 28 22
15 12 13 13 15 20 29 25 14 15 13 2 4 5 11 10 11 11 5 7 16 23 22 15 15 13 12 17 18 20 21 31 40 42 45 40 39 38 39 39 36 33 26 23
8 8 12 22 7 13 10 16 25 5 7 4 5 7 7 12 13 4 4 12 20 20 14 15 17 18 8 19 20 19 26 32 41 45 41 37 36 36 41 39 37 34 26 24
2 2 3 6 13 15 19 15 14 10 5 3 2 5 11 11 10 13 16 20 19 15 16 17 18 20 10 10 20 23 25 25 31 35 37 38 39 36 41 38 39 34 28 25
2 2 3 4 3 16 14 13 10 5 4 6 17 14 15 17 16 17 17 14 15 15 19 21 21 24 14 12 19 23 21 23 22 25 28 34 36 44 37 37 40 36 30 27
6 6 3 10 13 15 10 10 8 5 3 5 9 18 17 21 21 19 17 15 12 11 18 18 23 25 26 10 17 21 24 19 21 22 19 24 36 34 36 38 43 40 33 28
9 3 13 22 17 21 15 8 11 9 13 14 15 21 16 18 18 16 16 14 11 13 14 19 21 21 23 8 17 18 16 17 18 22 24 28 33 38 37 44 46 40 32 30
11 9 11 15 16 16 17 17 19 20 17 10 16 13 12 14 17 21 16 15 14 13 13 15 16 16 16 10 7 14 17 16 16 20 24 25 30 35 36 42 42 37 37 34
7 8 7 3 5 4 12 16 16 16 17 16 9 11 10 13 15 18 13 11 13 14 15 20 20 19 18 15 16 24 8 18 18 18 22 25 29 35 38 44 44 43 41 37
6 3 3 3 3 15 8 10 11 12 14 11 10 11 11 11 9 11 13 10 12 11 13 14 16 19 18 16 13 14 22 7 20 24 28 31 34 37 39 42 41 41 44 36
9 6 1 1 5 1 7 7 4 3 9 10 7 11 11 6 8 10 11 12 10 6 6 10 13 16 18 17 15 11 9 18 15 9 17 29 23 32 39 37 39 40 43 40
10 8 10 5 4 6 8 6 2 3 4 8 9 8 8 6 9 9 11 12 12 11 9 8 11 12 14 17 21 18 18 14 13 19 15 11 9 11 11 19 12 24 35 36
8 10 9 10 7 4 10 5 4 7 5 5 6 8 8 9 9 9 10 11 12 12 10 7 5 10 13 13 14 15 16 20 20 17 18 15 17 14 6 10 9 7 7 17
8 9 4 6 4 7 9 10 10 5 4 4 7 9 11 11 11 10 10 11 12 12 11 11 11 9 10 13 12 12 13 12 11 12 12 15 18 13 11 11 9 10 7 5
6 8 5 5 6 6 7 6 5 4 4 5 7 10 11 11 11 11 11 11 11 12 12 10 9 10 10 11 11 12 12 12 12 12 11 8 8 9 10 14 15 14 9 10
7 7 4 4 4 7 5 7 5 4 4 5 7 8 9 10 11 12 13 13 12 11 13 13 12 11 11 11 10 11 11 12 10 10 11 12 11 10 9 9 9 11 13 11
4 7 5 5 9 8 7 6 5 4 6 6 6 7 8 10 12 13 14 15 15 13 13 14 15 15 14 13 13 12 12 12 13 13 12 11 11 11 12 11 11 11 12 13
Wind_Direction
239 230 226 228 228 232 238 240 244 240 239 241 233 241 239 235 239 236 237 227 228 234 233 238 235 234 227 226 227 236 248 249 253 238 242 247 252 255 255 266 272 278 287 284
242 232 233 233 235 236 240 246 246 252 256 250 231 245 234 234 233 236 237 241 241 229 225 228 229 241 238 223 221 228 243 246 251 242 242 245 248 250 243 258 271 281 287 288
237 242 242 233 235 234 235 238 240 243 255 241 245 246 244 243 244 240 236 235 240 248 256 246 245 235 239 237 226 231 233 246 249 243 238 241 244 245 239 252 263 273 282 288
240 242 240 231 230 231 237 230 233 239 252 262 239 260 253 248 246 240 235 233 238 240 237 237 233 227 224 234 239 241 245 249 253 242 236 241 248 249 248 253 255 266 277 284
242 243 235 237 226 222 233 227 229 237 246 257 263 264 255 271 217 186 175 183 202 214 223 229 232 231 229 224 222 236 248 252 259 250 239 239 246 246 246 249 249 262 273 280
243 246 251 226 222 220 223 218 225 228 252 248 240 245 248 258 218 169 167 157 174 195 204 215 220 226 238 238 227 224 236 248 251 258 239 242 245 247 248 248 247 256 270 278
240 254 226 210 222 209 205 196 205 215 221 235 225 234 239 131 135 147 151 172 195 224 247 248 250 240 217 218 232 232 225 239 242 252 247 241 243 247 251 245 242 249 267 277
227 219 221 194 199 193 201 198 205 201 202 222 234 250 232 184 184 131 169 134 217 256 256 286 279 267 237 225 230 224 230 225 239 245 252 239 240 241 245 242 238 246 263 273
232 231 189 203 193 186 193 205 210 314 250 252 191 120 118 160 164 156 106 88 200 267 288 312 309 281 246 232 232 228 225 221 233 242 246 241 237 239 244 237 234 243 258 266
235 179 181 187 191 194 195 206 220 201 214 205 201 173 157 120 118 122 141 191 268 275 279 305 321 284 268 240 237 239 237 220 228 238 242 242 234 237 242 230 229 239 255 263
256 250 165 180 197 188 199 215 220 226 244 273 168 124 96 77 95 120 116 306 300 293 295 308 333 321 264 221 208 209 209 214 218 227 236 235 234 234 236 224 224 234 250 259
213 332 162 195 181 207 220 192 195 228 225 161 61 92 38 113 98 124 305 304 307 315 307 312 324 347 272 212 213 222 224 228 229 233 231 237 233 237 225 218 222 232 241 252
178 245 98 185 229 218 217 204 209 194 264 267 143 133 48 55 27 3 339 321 325 334 333 326 334 333 286 245 224 225 215 224 226 225 226 234 238 219 219 218 227 231 239 247
185 291 293 305 333 182 185 181 159 137 208 298 56 84 33 24 12 345 335 342 344 334 336 342 339 349 318 253 237 231 229 216 228 229 229 226 207 213 214 223 230 232 237 242
20 334 280 240 204 150 155 141 131 119 75 43 47 53 24 15 12 2 358 342 341 334 335 344 343 343 343 268 243 229 236 226 217 207 199 198 202 207 219 234 235 233 235 237
78 32 55 37 109 107 96 86 93 88 43 66 83 59 14 12 10 11 18 357 344 351 348 342 341 341 349 295 235 221 223 227 223 206 197 194 195 214 229 237 236 232 235 234
80 50 45 52 87 104 53 48 80 68 50 31 37 2 352 7 10 20 17 16 17 19 19 13 6 8 11 6 296 181 200 206 222 211 208 201 203 221 239 248 240 233 234 232
68 47 63 76 97 61 84 71 80 56 65 46 36 12 360 1 11 11 16 37 42 50 53 51 42 35 27 24 20 20 159 193 202 210 212 213 218 224 235 243 237 235 233 234
38 50 31 171 168 124 69 53 40 7 43 44 38 11 10 21 25 16 22 48 50 63 63 45 29 30 35 31 45 1 25 136 192 208 206 215 228 224 233 226 231 228 233 234
15 356 289 149 147 216 62 43 307 110 48 21 26 26 29 34 20 29 30 27 32 29 15 34 34 24 21 25 29 30 19 18 34 97 201 212 214 203 202 214 210 216 222 220
2 24 33 17 74 72 34 338 68 34 13 24 21 32 42 47 46 32 22 17 16 15 8 44 32 14 9 10 13 14 26 45 31 15 14 30 69 71 146 197 186 193 207 213
31 356 20 10 47 47 15 21 82 90 56 22 22 29 22 16 8 3 359 1 1 6 5 340 358 13 11 1 356 354 356 8 12 18 16 10 355 356 355 16 10 21 143 184
39 31 29 46 60 34 28 58 59 71 52 16 356 349 348 345 350 350 345 344 344 342 342 351 358 333 338 355 354 352 348 349 348 354 349 341 352 360 344 338 337 344 4 340
19 21 40 48 13 7 22 39 44 29 0 349 347 346 346 347 351 356 357 355 354 353 354 353 356 355 354 349 345 343 344 344 339 338 334 331 315 314 316 323 336 301 295 286
344 350 4 349 339 330 342 354 354 351 350 346 348 355 356 352 348 347 346 345 348 345 341 338 337 338 338 337 334 330 326 324 325 322 323 323 322 317 312 306 286 274 271 276
352 2 358 302 315 317 309 319 339 354 349 344 340 336 335 332 331 330 331 329 329 330 329 328 329 331 332 330 329 327 323 319 316 315 312 306 301 303 302 298 294 287 284 277
Height
3009 3012 3007 3005 3009 3016 3022 3022 3020 3021 3025 3026 3025 3025 3032 3036 3037 3039 3042 3045 3048 3052 3054 3057 3058 3061 3064 3069 3074 3075 3066 3070 3075 3081 3082 3084 3087 3089 3090 3089 3090 3091 3091 3091
3005 2999 2995 3006 3012 3013 3016 3016 3016 3018 3016 3018 3019 3020 3025 3027 3029 3033 3036 3038 3041 3045 3047 3050 3053 3056 3057 3061 3066 3068 3061 3061 3067 3075 3078 3079 3080 3084 3086 3085 3085 3086 3086 3086
2993 2989 2999 3002 3005 3006 3009 3011 3014 3015 3015 3016 3017 3016 3018 3020 3022 3024 3027 3032 3037 3038 3041 3044 3047 3050 3053 3054 3057 3058 3059 3053 3059 3068 3071 3072 3071 3078 3080 3081 3082 3082 3081 3081
2985 2989 2992 2995 2997 3001 3002 3007 3010 3013 3014 3014 3014 3012 3012 3009 3010 3014 3021 3025 3031 3033 3033 3036 3038 3041 3043 3047 3050 3050 3052 3053 3049 3058 3064 3064 3067 3072 3075 3076 3078 3078 3077 3077
2973 2980 2984 2986 2989 2997 2998 3004 3008 3011 3013 3015 3010 3011 3004 3005 3006 3009 3014 3015 3020 3022 3023 3025 3028 3029 3031 3035 3038 3043 3043 3044 3043 3047 3055 3059 3059 3065 3068 3069 3072 3072 3074 3073
2972 2979 2978 2981 2987 2992 2998 3001 3008 3011 3013 3011 3008 3009 3003 3002 3003 3006 3011 3015 3019 3021 3019 3018 3019 3020 3024 3029 3030 3033 3037 3036 3038 3035 3047 3050 3053 3057 3061 3063 3066 3068 3068 3069
2968 2974 2971 2978 2984 2988 2995 3001 3007 3011 3011 2997 3002 3004 3003 2997 3000 3005 3009 3013 3013 3014 3012 3012 3014 3016 3013 3016 3019 3025 3028 3029 3030 3029 3036 3042 3046 3049 3053 3056 3060 3063 3063 3063
2967 2971 2969 2973 2978 2983 2989 2996 2999 2993 2994 2993 2995 2993 2990 2997 3003 3005 3007 3009 3008 3007 3006 3008 3007 3006 3007 3008 3009 3009 3017 3021 3023 3025 3026 3034 3037 3042 3045 3049 3053 3056 3058 3059
2964 2966 2966 2972 2977 2981 2986 2989 2993 2994 2990 2989 2989 2990 2993 2994 3000 3002 3004 3004 3004 3000 3003 3003 3001 2999 2999 3000 3001 3002 3003 3010 3015 3018 3019 3024 3029 3034 3038 3042 3047 3049 3053 3054
2963 2962 2965 2970 2973 2980 2982 2990 2992 2993 2988 2985 2984 2989 2987 2984 2993 2999 2998 2999 2998 2997 2999 2998 2995 2992 2992 2993 2994 2997 2998 3002 3008 3010 3012 3015 3022 3027 3031 3036 3040 3043 3046 3049
2963 2963 2968 2970 2971 2974 2981 2983 2986 2988 2986 2983 2976 2989 2988 2992 2993 2992 2994 2996 2995 2993 2993 2992 2990 2987 2986 2986 2989 2990 2992 2997 2999 3002 3004 3009 3015 3021 3024 3029 3034 3037 3041 3043
2965 2962 2966 2967 2972 2976 2974 2976 2983 2983 2982 2982 2985 2994 2991 2989 2992 2993 2994 2994 2992 2989 2987 2987 2985 2983 2981 2981 2984 2985 2984 2988 2991 2996 3000 3004 3010 3015 3017 3023 3028 3032 3036 3038
2967 2967 2967 2971 2974 2975 2975 2979 2981 2983 2985 2982 2984 2991 2988 2990 2991 2989 2990 2989 2986 2985 2984 2982 2981 2978 2976 2976 2978 2980 2980 2982 2986 2991 2996 2999 3003 3008 3011 3017 3023 3028 3031 3033
2966 2967 2968 2968 2967 2971 2975 2977 2980 2983 2988 2984 2990 2990 2987 2988 2989 2989 2987 2985 2983 2983 2982 2979 2977 2974 2970 2971 2973 2974 2975 2977 2980 2984 2987 2990 2996 3002 3007 3013 3018 3021 3024 3027
2968 2968 2970 2966 2968 2972 2977 2979 2982 2986 2988 2989 2990 2986 2988 2989 2989 2988 2985 2983 2982 2982 2981 2978 2975 2970 2968 2967 2967 2970 2972 2973 2975 2978 2981 2986 2994 3000 3002 3007 3012 3016 3019 3022
2975 2975 2972 2965 2969 2972 2981 2985 2985 2988 2989 2990 2990 2991 2993 2992 2991 2988 2985 2983 2983 2982 2980 2978 2975 2972 2967 2964 2965 2966 2969 2971 2972 2975 2979 2983 2988 2994 2998 3000 3005 3010 3014 3016
2978 2979 2977 2979 2980 2981 2985 2988 2989 2991 2991 2992 2992 2996 2994 2993 2990 2987 2987 2986 2985 2983 2981 2978 2975 2973 2969 2965 2965 2960 2964 2967 2970 2973 2977 2981 2984 2989 2994 2996 3000 3005 3008 3010
2982 2982 2982 2984 2984 2986 2993 2992 2991 2992 2994 2995 2996 2995 2995 2994 2992 2991 2990 2989 2987 2985 2982 2981 2978 2975 2972 2969 2967 2964 2960 2963 2967 2971 2976 2978 2981 2984 2987 2990 2993 2997 3000 3002
2987 2985 2985 2986 2987 2992 2992 2993 2994 2996 2998 2997 2998 2998 2996 2995 2995 2994 2992 2990 2988 2986 2984 2982 2980 2978 2975 2972 2965 2967 2965 2959 2963 2966 2970 2974 2977 2978 2980 2982 2985 2987 2990 2994
2990 2988 2988 2986 2988 2991 2996 2996 2996 2997 2999 3000 3000 2999 2998 2996 2996 2995 2993 2991 2989 2987 2985 2984 2982 2980 2977 2975 2972 2967 2965 2966 2967 2964 2963 2965 2963 2963 2965 2971 2971 2976 2980 2983
2991 2989 2990 2988 2990 2996 2997 2996 2996 2998 3008 3001 3001 3000 2999 2998 2997 2996 2994 2992 2990 2988 2986 2984 2983 2982 2979 2976 2974 2972 2970 2968 2967 2968 2967 2965 2964 2954 2959 2966 2964 2964 2970 2972
2995 2994 2994 2994 2994 3000 2998 2997 2998 3003 3002 3002 3001 3000 2999 2998 2997 2995 2994 2992 2990 2988 2987 2985 2983 2981 2980 2977 2975 2974 2973 2971 2967 2967 2967 2966 2967 2963 2960 2964 2967 2965 2963 2963
3000 3002 3001 3002 3003 3002 3002 3001 3002 3002 3002 3002 3001 3000 2999 2997 2996 2994 2993 2991 2989 2987 2986 2984 2983 2981 2980 2979 2976 2975 2974 2973 2971 2969 2970 2970 2966 2968 2967 2963 2961 2966 2960 2965
3003 3002 3002 3003 3003 3003 3003 3002 3003 3003 3003 3002 3001 3000 2997 2996 2994 2993 2992 2991 2989 2986 2984 2984 2983 2982 2981 2979 2977 2975 2974 2974 2973 2971 2968 2966 2965 2963 2963 2964 2962 2963 2961 2968
3004 3003 3003 3002 3002 3003 3002 3002 3002 3002 3002 3002 3000 2999 2998 2996 2994 2993 2991 2990 2989 2987 2984 2983 2981 2981 2980 2979 2978 2976 2973 2972 2971 2970 2968 2966 2965 2964 2962 2961 2961 2960 2965 2965
3003 3003 3003 3002 3002 3002 3003 3002 3001 3002 3002 3001 3000 2999 2998 2996 2994 2992 2990 2988 2987 2986 2984 2981 2979 2978 2978 2977 2975 2974 2973 2971 2969 2967 2966 2966 2966 2964 2963 2961 2960 2960 2960 2961